VOZ443 YPAD-YSSY

Flight info

Callsign VOZ443
Flight time N/A
Altitude 39000
Route AD H247 CULIN Y59 TESAT
Aircraft B738/M-SDE2E3FGHIRWXY/LB1

Departure

Time 2026-04-28 06:54
Airport Adelaide International Airport (YPAD)

Arrival

Time N/A
Airport Sydney Kingsford Smith International Airport (YSSY)
Time Latitude Longitude Altitude Speed Heading
2026-04-28 06:30 -34.93784 138.54071 25 ft 0 kts 320°
2026-04-28 06:49 -34.93793 138.54080 28 ft 4 kts 320°
2026-04-28 06:49 -34.93813 138.54102 29 ft 4 kts 312°
2026-04-28 06:49 -34.93827 138.54128 29 ft 4 kts 280°
2026-04-28 06:49 -34.93829 138.54136 29 ft 0 kts 272°
2026-04-28 06:52 -34.93829 138.54133 29 ft 2 kts 265°
2026-04-28 06:52 -34.93847 138.54119 27 ft 5 kts 189°
2026-04-28 06:52 -34.93895 138.54140 26 ft 10 kts 146°
2026-04-28 06:52 -34.93957 138.54201 29 ft 12 kts 140°
2026-04-28 06:53 -34.94018 138.54264 30 ft 11 kts 140°
2026-04-28 06:53 -34.94087 138.54287 28 ft 11 kts 210°
2026-04-28 06:53 -34.94149 138.54203 27 ft 20 kts 230°
2026-04-28 06:53 -34.94380 138.53867 29 ft 84 kts 230°
2026-04-28 06:54 -34.94877 138.53143 25 ft 136 kts 230°
2026-04-28 06:54 -34.95553 138.52163 240 ft 157 kts 229°
2026-04-28 06:54 -34.96260 138.51128 803 ft 160 kts 231°
2026-04-28 06:54 -34.96979 138.50081 1382 ft 163 kts 231°
2026-04-28 06:55 -34.97707 138.49021 1924 ft 168 kts 232°
2026-04-28 06:55 -34.98523 138.47828 2134 ft 197 kts 232°
2026-04-28 06:55 -34.99452 138.46472 2333 ft 220 kts 231°
2026-04-28 06:55 -35.00477 138.44978 2580 ft 242 kts 232°
2026-04-28 06:56 -35.01579 138.43387 3091 ft 253 kts 229°
2026-04-28 06:56 -35.03071 138.42184 3703 ft 267 kts 199°
2026-04-28 06:56 -35.04935 138.42067 4401 ft 275 kts 168°
2026-04-28 06:56 -35.06648 138.43115 5122 ft 279 kts 143°
2026-04-28 06:57 -35.08187 138.44572 5846 ft 282 kts 142°
2026-04-28 06:57 -35.09684 138.46144 6556 ft 286 kts 130°
2026-04-28 06:57 -35.10568 138.48298 7250 ft 287 kts 101°
2026-04-28 06:57 -35.10672 138.50726 7996 ft 287 kts 85°
2026-04-28 06:58 -35.10510 138.53141 8686 ft 292 kts 83°
2026-04-28 06:58 -35.10321 138.55629 9440 ft 295 kts 83°
2026-04-28 06:58 -35.10141 138.58136 10218 ft 298 kts 84°
2026-04-28 06:58 -35.09966 138.60737 10501 ft 320 kts 84°
2026-04-28 06:59 -35.09783 138.63537 10683 ft 342 kts 85°
2026-04-28 06:59 -35.09594 138.66493 11083 ft 355 kts 84°
2026-04-28 06:59 -35.09400 138.69534 11668 ft 362 kts 84°
2026-04-28 06:59 -35.09205 138.72613 12394 ft 364 kts 84°
2026-04-28 07:00 -35.09006 138.75714 13097 ft 369 kts 84°
2026-04-28 07:00 -35.08807 138.78813 13747 ft 374 kts 84°
2026-04-28 07:00 -35.08601 138.82005 14396 ft 379 kts 84°
2026-04-28 07:00 -35.08393 138.85224 15058 ft 382 kts 84°
2026-04-28 07:01 -35.08182 138.88467 15730 ft 385 kts 84°
2026-04-28 07:01 -35.07967 138.91757 16358 ft 390 kts 84°
2026-04-28 07:01 -35.07748 138.95077 16993 ft 395 kts 84°
2026-04-28 07:01 -35.07526 138.98433 17629 ft 399 kts 84°
2026-04-28 07:02 -35.07301 139.01823 18267 ft 402 kts 84°
2026-04-28 07:02 -35.07072 139.05256 18830 ft 407 kts 84°
2026-04-28 07:02 -35.06843 139.08674 19368 ft 410 kts 84°
2026-04-28 07:02 -35.06609 139.12166 19921 ft 414 kts 84°
2026-04-28 07:03 -35.06371 139.15696 20461 ft 418 kts 84°
2026-04-28 07:03 -35.06131 139.19244 21008 ft 422 kts 84°
2026-04-28 07:03 -35.05887 139.22830 21538 ft 425 kts 84°
2026-04-28 07:03 -35.05638 139.26450 22047 ft 429 kts 83°
2026-04-28 07:04 -35.05386 139.30095 22551 ft 433 kts 83°
2026-04-28 07:04 -35.05131 139.33768 23060 ft 436 kts 83°
2026-04-28 07:04 -35.04876 139.37429 23538 ft 440 kts 83°
2026-04-28 07:04 -35.04615 139.41168 23993 ft 444 kts 83°
2026-04-28 07:05 -35.04351 139.44932 24398 ft 447 kts 83°
2026-04-28 07:05 -35.04084 139.48726 24808 ft 450 kts 83°
2026-04-28 07:05 -35.03815 139.52539 25213 ft 453 kts 83°
2026-04-28 07:05 -35.03542 139.56383 25605 ft 456 kts 83°
2026-04-28 07:06 -35.03266 139.60252 25989 ft 459 kts 84°
2026-04-28 07:06 -35.02988 139.64140 26357 ft 462 kts 84°
2026-04-28 07:06 -35.02706 139.68057 26730 ft 464 kts 84°
2026-04-28 07:06 -35.02422 139.71991 27095 ft 467 kts 84°
2026-04-28 07:07 -35.02134 139.75949 27467 ft 470 kts 84°
2026-04-28 07:07 -35.01844 139.79929 27853 ft 471 kts 84°
2026-04-28 07:07 -35.01551 139.83932 28211 ft 474 kts 84°
2026-04-28 07:07 -35.01255 139.87946 28537 ft 476 kts 84°
2026-04-28 07:08 -35.00957 139.91981 28855 ft 479 kts 84°
2026-04-28 07:08 -35.00659 139.95993 29164 ft 482 kts 84°
2026-04-28 07:08 -35.00351 140.00116 29510 ft 483 kts 84°
2026-04-28 07:08 -35.00049 140.04150 29883 ft 484 kts 84°
2026-04-28 07:09 -34.99741 140.08242 30186 ft 486 kts 85°
2026-04-28 07:09 -34.99428 140.12374 30432 ft 489 kts 85°
2026-04-28 07:09 -34.99113 140.16518 30654 ft 492 kts 84°
2026-04-28 07:09 -34.98796 140.20677 30898 ft 494 kts 84°
2026-04-28 07:10 -34.98475 140.24864 31177 ft 495 kts 84°
2026-04-28 07:10 -34.98154 140.29039 31504 ft 494 kts 84°
2026-04-28 07:10 -34.97831 140.33211 31846 ft 494 kts 84°
2026-04-28 07:10 -34.97573 140.37386 32138 ft 494 kts 88°
2026-04-28 07:11 -34.97528 140.41532 32409 ft 495 kts 90°
2026-04-28 07:11 -34.97595 140.45724 32755 ft 494 kts 91°
2026-04-28 07:11 -34.97698 140.49908 33169 ft 492 kts 91°
2026-04-28 07:11 -34.97794 140.54077 33415 ft 493 kts 91°
2026-04-28 07:12 -34.97868 140.58274 33563 ft 497 kts 90°
2026-04-28 07:12 -34.97920 140.62485 33825 ft 497 kts 90°
2026-04-28 07:12 -34.97956 140.66692 34265 ft 493 kts 90°
2026-04-28 07:12 -34.97982 140.70831 34858 ft 484 kts 90°
2026-04-28 07:13 -34.98003 140.74933 35160 ft 484 kts 90°
2026-04-28 07:13 -34.98023 140.79051 35282 ft 487 kts 90°
2026-04-28 07:13 -34.98042 140.83197 35424 ft 490 kts 90°
2026-04-28 07:13 -34.98061 140.87350 35689 ft 489 kts 90°
2026-04-28 07:14 -34.98079 140.91479 36015 ft 486 kts 90°
2026-04-28 07:14 -34.98097 140.95598 36287 ft 486 kts 90°
2026-04-28 07:14 -34.98113 140.99717 36495 ft 486 kts 90°
2026-04-28 07:14 -34.98128 141.03849 36687 ft 487 kts 89°
2026-04-28 07:15 -34.98142 141.07924 36959 ft 485 kts 89°
2026-04-28 07:15 -34.98154 141.12031 37261 ft 483 kts 90°
2026-04-28 07:15 -34.98164 141.16136 37482 ft 483 kts 90°
2026-04-28 07:15 -34.98173 141.20242 37663 ft 484 kts 89°
2026-04-28 07:16 -34.98181 141.24349 37884 ft 484 kts 89°
2026-04-28 07:16 -34.98188 141.28443 38136 ft 483 kts 89°
2026-04-28 07:16 -34.98193 141.32536 38398 ft 481 kts 89°
2026-04-28 07:16 -34.98196 141.36625 38648 ft 480 kts 89°
2026-04-28 07:17 -34.98199 141.40696 38830 ft 480 kts 89°
2026-04-28 07:17 -34.98201 141.44716 38982 ft 480 kts 89°
2026-04-28 07:17 -34.98200 141.48792 39137 ft 480 kts 89°
2026-04-28 07:17 -34.98198 141.52867 39239 ft 481 kts 90°
2026-04-28 07:18 -34.98194 141.56972 39232 ft 483 kts 90°
2026-04-28 07:18 -34.98183 141.65159 39252 ft 482 kts 90°
2026-04-28 07:19 -34.98167 141.73307 39243 ft 479 kts 90°
2026-04-28 07:19 -34.98145 141.81414 39255 ft 476 kts 90°
2026-04-28 07:20 -34.98119 141.89422 39250 ft 475 kts 90°
2026-04-28 07:20 -34.98087 141.97476 39251 ft 474 kts 90°
2026-04-28 07:21 -34.98050 142.05523 39252 ft 475 kts 90°
2026-04-28 07:21 -34.98007 142.13602 39240 ft 477 kts 90°
2026-04-28 07:22 -34.97934 142.25743 39257 ft 481 kts 90°
2026-04-28 07:22 -34.97877 142.33923 39254 ft 484 kts 90°
2026-04-28 07:23 -34.97814 142.42157 39258 ft 486 kts 90°
2026-04-28 07:23 -34.97746 142.50443 39260 ft 489 kts 90°
2026-04-28 07:24 -34.97671 142.58706 39256 ft 491 kts 91°
2026-04-28 07:24 -34.97591 142.67038 39244 ft 491 kts 91°
2026-04-28 07:25 -34.97505 142.75350 39249 ft 490 kts 91°
2026-04-28 07:25 -34.97413 142.83654 39260 ft 488 kts 91°
2026-04-28 07:26 -34.97333 142.90527 39245 ft 486 kts 91°
2026-04-28 07:26 -34.97216 143.00081 39247 ft 483 kts 91°
2026-04-28 07:27 -34.97127 143.06925 39248 ft 480 kts 91°
2026-04-28 07:27 -34.97018 143.15007 39250 ft 478 kts 91°
2026-04-28 07:28 -34.96903 143.23102 39246 ft 476 kts 91°
2026-04-28 07:28 -34.96799 143.31167 39257 ft 475 kts 91°
2026-04-28 07:29 -34.96703 143.39228 39254 ft 474 kts 91°
2026-04-28 07:29 -34.96602 143.47275 39258 ft 474 kts 91°
2026-04-28 07:30 -34.96493 143.55256 39266 ft 474 kts 91°
2026-04-28 07:30 -34.96378 143.63303 39255 ft 474 kts 91°
2026-04-28 07:31 -34.96258 143.71348 39255 ft 475 kts 91°
2026-04-28 07:31 -34.96132 143.79393 39260 ft 475 kts 91°
2026-04-28 07:32 -34.96000 143.87444 39256 ft 474 kts 91°
2026-04-28 07:32 -34.95865 143.95444 39258 ft 474 kts 91°
2026-04-28 07:33 -34.95723 144.03483 39257 ft 473 kts 91°
2026-04-28 07:33 -34.95576 144.11509 39259 ft 473 kts 91°
2026-04-28 07:34 -34.95424 144.19535 39259 ft 473 kts 91°
2026-04-28 07:34 -34.95268 144.27497 39261 ft 472 kts 91°
2026-04-28 07:35 -34.95106 144.35504 39258 ft 472 kts 91°
2026-04-28 07:35 -34.94939 144.43511 39255 ft 472 kts 91°
2026-04-28 07:36 -34.94767 144.51456 39271 ft 471 kts 91°
2026-04-28 07:36 -34.94590 144.59454 39260 ft 471 kts 91°
2026-04-28 07:37 -34.94407 144.67439 39259 ft 471 kts 91°
2026-04-28 07:37 -34.94220 144.75422 39265 ft 471 kts 91°
2026-04-28 07:38 -34.94026 144.83411 39262 ft 471 kts 91°
2026-04-28 07:38 -34.93828 144.91405 39261 ft 471 kts 91°
2026-04-28 07:39 -34.93626 144.99340 39263 ft 471 kts 91°
2026-04-28 07:39 -34.93418 145.07326 39268 ft 471 kts 91°
2026-04-28 07:40 -34.93200 145.15315 39260 ft 471 kts 91°
2026-04-28 07:40 -34.92973 145.23283 39264 ft 470 kts 91°
2026-04-28 07:41 -34.92742 145.31254 39273 ft 470 kts 91°
2026-04-28 07:41 -34.92508 145.39170 39265 ft 470 kts 91°
2026-04-28 07:42 -34.92267 145.47132 39265 ft 469 kts 91°
2026-04-28 07:42 -34.92023 145.55074 39271 ft 469 kts 91°
2026-04-28 07:43 -34.91773 145.63015 39274 ft 468 kts 91°
2026-04-28 07:43 -34.91518 145.70946 39267 ft 468 kts 91°
2026-04-28 07:44 -34.91258 145.78860 39278 ft 467 kts 91°
2026-04-28 07:44 -34.90994 145.86770 39269 ft 467 kts 91°
2026-04-28 07:45 -34.90726 145.94618 39266 ft 466 kts 91°
2026-04-28 07:45 -34.90452 146.02508 39272 ft 466 kts 91°
2026-04-28 07:46 -34.90174 146.10390 39276 ft 465 kts 91°
2026-04-28 07:46 -34.89890 146.18263 39270 ft 465 kts 91°
2026-04-28 07:47 -34.89602 146.26128 39277 ft 465 kts 91°
2026-04-28 07:47 -34.89309 146.33985 39286 ft 464 kts 91°
2026-04-28 07:48 -34.89010 146.41847 39277 ft 464 kts 91°
2026-04-28 07:48 -34.88708 146.49675 39279 ft 465 kts 91°
2026-04-28 07:49 -34.88400 146.57540 39273 ft 465 kts 91°
2026-04-28 07:49 -34.88086 146.65400 39276 ft 464 kts 91°
2026-04-28 07:50 -34.87767 146.73255 39280 ft 464 kts 91°
2026-04-28 07:50 -34.87445 146.81080 39282 ft 464 kts 91°
2026-04-28 07:51 -34.87117 146.88930 39290 ft 464 kts 91°
2026-04-28 07:51 -34.86783 146.96790 39280 ft 464 kts 91°
2026-04-28 07:52 -34.86445 147.04632 39279 ft 464 kts 91°
2026-04-28 07:52 -34.86103 147.12444 39295 ft 464 kts 91°
2026-04-28 07:53 -34.85754 147.20297 39286 ft 464 kts 91°
2026-04-28 07:53 -34.85400 147.28142 39286 ft 463 kts 91°
2026-04-28 07:54 -34.85043 147.35969 39286 ft 463 kts 91°
2026-04-28 07:54 -34.84682 147.43743 39301 ft 462 kts 91°
2026-04-28 07:55 -34.84314 147.51568 39279 ft 462 kts 91°
2026-04-28 07:55 -34.83942 147.59367 39283 ft 461 kts 91°
2026-04-28 07:56 -34.83569 147.67109 39301 ft 460 kts 91°
2026-04-28 07:56 -34.83189 147.74870 39294 ft 459 kts 91°
2026-04-28 07:57 -34.82805 147.82614 39291 ft 458 kts 91°
2026-04-28 07:57 -34.82414 147.90346 39302 ft 457 kts 90°
2026-04-28 07:58 -34.81193 147.98006 39306 ft 463 kts 79°
2026-04-28 07:58 -34.79544 148.05580 39301 ft 462 kts 79°
2026-04-28 07:59 -34.77921 148.13094 39299 ft 461 kts 80°
2026-04-28 07:59 -34.76334 148.20663 39315 ft 461 kts 80°
2026-04-28 08:00 -34.74766 148.28231 39306 ft 461 kts 80°
2026-04-28 08:00 -34.73199 148.35788 39309 ft 461 kts 80°
2026-04-28 08:01 -34.71626 148.43340 39310 ft 460 kts 80°
2026-04-28 08:01 -34.70049 148.50881 39318 ft 460 kts 81°
2026-04-28 08:02 -34.68478 148.58364 39306 ft 460 kts 81°
2026-04-28 08:02 -34.66895 148.65880 39310 ft 459 kts 81°
2026-04-28 08:03 -34.65302 148.73423 38935 ft 465 kts 81°
2026-04-28 08:03 -34.64496 148.77233 38380 ft 464 kts 81°
2026-04-28 08:03 -34.63694 148.81012 37789 ft 461 kts 81°
2026-04-28 08:04 -34.62892 148.84780 37220 ft 460 kts 81°
2026-04-28 08:04 -34.62103 148.88479 36641 ft 458 kts 81°
2026-04-28 08:04 -34.61305 148.92222 36040 ft 458 kts 81°
2026-04-28 08:04 -34.60507 148.95961 35391 ft 458 kts 81°
2026-04-28 08:05 -34.59705 148.99712 34744 ft 459 kts 81°
2026-04-28 08:05 -34.58903 149.03462 34108 ft 459 kts 81°
2026-04-28 08:05 -34.58100 149.07197 33611 ft 455 kts 81°
2026-04-28 08:05 -34.57304 149.10894 33095 ft 451 kts 81°
2026-04-28 08:06 -34.56512 149.14567 32610 ft 446 kts 81°
2026-04-28 08:06 -34.55730 149.18189 32137 ft 442 kts 81°
2026-04-28 08:06 -34.54953 149.21782 31684 ft 438 kts 80°
2026-04-28 08:06 -34.54183 149.25341 31223 ft 435 kts 80°
2026-04-28 08:07 -34.53417 149.28879 30777 ft 431 kts 80°
2026-04-28 08:07 -34.52657 149.32384 30326 ft 428 kts 80°
2026-04-28 08:07 -34.51911 149.35821 29800 ft 424 kts 80°
2026-04-28 08:07 -34.51161 149.39264 29308 ft 420 kts 80°
2026-04-28 08:08 -34.50420 149.42665 28850 ft 416 kts 80°
2026-04-28 08:08 -34.49684 149.46036 28378 ft 412 kts 80°
2026-04-28 08:08 -34.48954 149.49377 27920 ft 408 kts 80°
2026-04-28 08:08 -34.48231 149.52680 27455 ft 404 kts 80°
2026-04-28 08:09 -34.47511 149.55968 27014 ft 401 kts 80°
2026-04-28 08:09 -34.46798 149.59219 26567 ft 398 kts 80°
2026-04-28 08:09 -34.46086 149.62463 26131 ft 396 kts 80°
2026-04-28 08:09 -34.45380 149.65674 25923 ft 397 kts 80°
2026-04-28 08:10 -34.44656 149.68988 25717 ft 417 kts 79°
2026-04-28 08:10 -34.43897 149.72465 25470 ft 435 kts 79°
2026-04-28 08:10 -34.43103 149.76081 25255 ft 451 kts 79°
2026-04-28 08:10 -34.42279 149.79813 25028 ft 463 kts 79°
2026-04-28 08:11 -34.41440 149.83582 24789 ft 462 kts 79°
2026-04-28 08:11 -34.40612 149.87285 24553 ft 460 kts 78°
2026-04-28 08:11 -34.39778 149.91009 24335 ft 457 kts 78°
2026-04-28 08:11 -34.38949 149.94720 23999 ft 458 kts 78°
2026-04-28 08:12 -34.38117 149.98448 23479 ft 459 kts 78°
2026-04-28 08:12 -34.37287 150.02161 22903 ft 451 kts 78°
2026-04-28 08:12 -34.36473 150.05787 22539 ft 441 kts 78°
2026-04-28 08:12 -34.35672 150.09359 22290 ft 441 kts 78°
2026-04-28 08:13 -34.34868 150.12950 22034 ft 441 kts 78°
2026-04-28 08:13 -34.34063 150.16537 21784 ft 441 kts 78°
2026-04-28 08:13 -34.33259 150.20116 21543 ft 441 kts 77°
2026-04-28 08:13 -34.32464 150.23644 21101 ft 437 kts 77°
2026-04-28 08:14 -34.31667 150.27173 20487 ft 432 kts 77°
2026-04-28 08:14 -34.30879 150.30657 19845 ft 427 kts 77°
2026-04-28 08:14 -34.30100 150.34103 19217 ft 423 kts 76°
2026-04-28 08:14 -34.29326 150.37519 18580 ft 419 kts 76°
2026-04-28 08:15 -34.28559 150.40897 17866 ft 415 kts 76°
2026-04-28 08:15 -34.27693 150.44207 17190 ft 412 kts 68°
2026-04-28 08:15 -34.26387 150.47267 16589 ft 407 kts 61°
2026-04-28 08:15 -34.24985 150.50222 15964 ft 403 kts 60°
2026-04-28 08:16 -34.23599 150.53154 15350 ft 400 kts 61°
2026-04-28 08:16 -34.22247 150.56076 14742 ft 396 kts 62°
2026-04-28 08:16 -34.21371 150.58007 14346 ft 395 kts 62°
2026-04-28 08:16 -34.20065 150.60911 13676 ft 392 kts 62°
2026-04-28 08:17 -34.18771 150.63799 13039 ft 389 kts 62°
2026-04-28 08:17 -34.17487 150.66660 12437 ft 385 kts 62°
2026-04-28 08:17 -34.16217 150.69485 11848 ft 381 kts 62°
2026-04-28 08:17 -34.14955 150.72289 11259 ft 377 kts 62°
2026-04-28 08:18 -34.13706 150.75061 10684 ft 374 kts 62°
2026-04-28 08:18 -34.12467 150.77811 10084 ft 372 kts 62°
2026-04-28 08:18 -34.11233 150.80548 9455 ft 370 kts 62°
2026-04-28 08:18 -34.10007 150.83261 8928 ft 366 kts 62°
2026-04-28 08:19 -34.08804 150.85934 8622 ft 360 kts 62°
2026-04-28 08:19 -34.07619 150.88569 8312 ft 353 kts 62°
2026-04-28 08:19 -34.06461 150.91140 8016 ft 344 kts 62°
2026-04-28 08:19 -34.05349 150.93608 7731 ft 335 kts 62°
2026-04-28 08:20 -34.04249 150.96048 7518 ft 325 kts 63°
2026-04-28 08:20 -34.03552 150.98559 7370 ft 312 kts 86°
2026-04-28 08:20 -34.03761 151.01087 7262 ft 298 kts 108°
2026-04-28 08:20 -34.04590 151.03305 7149 ft 284 kts 126°
2026-04-28 08:21 -34.05838 151.05094 6972 ft 276 kts 134°